Regional Weather Roundup
Issued by NWS Goodland, KS

Home | Current Version | Previous Version | Text Only | Print | Product List | Glossary Off
Versions: 1 2 3 4 5 6 7 8 9 10 11 12 13 14 15 16 17 18 19 20 21 22 23 24 25 26 27 28 29 30 31 32 33 34 35 36 37 38 39 40 41 42 43 44 45 46 47 48 49 50

000
ASUS43 KGLD 261959
RWRGLD

GOODLAND FORECAST AREA HOURLY WEATHER ROUNDUP
NATIONAL WEATHER SERVICE GOODLAND KS
200 PM MDT SUN MAR 26 2017

...OFFICIAL OBSERVATIONS...

CITY           SKY/WX    TMP DP  RH WIND       PRES   REMARKS
GOODLAND KS    LGT RAIN  46  41  82 NE13      29.86S
HILL CITY KS   CLOUDY    47  42  83 E12       29.87F
IMPERIAL NEB   CLOUDY    53  42  66 CALM      29.87F
MCCOOK NEB     MOSUNNY   50  41  71 VRB3      29.88F
AKRON CO       CLOUDY    51  35  54 N10       29.89S
BURLINGTON CO  CLOUDY    47  41  80 N17       29.86S
LIMON CO       LGT RAIN  45  37  73 N17       29.89R
$$

...UNOFFICIAL OBSERVATIONS...

CITY           SKY/WX    TMP DP  RH WIND       PRES   REMARKS
LENORA KS        N/A     45  32  60 CALM        N/A
NORTON KS      CLOUDY    48  37  66 E7        29.87F
SHARON SPRINGS   N/A     42  41  96 NE10        N/A
TRENTON NEB      N/A     46  32  58 CALM        N/A
YUMA CO        CLOUDY    48  36  61 N13       29.87F
$$



USA.gov is the U.S. government's official web portal to all federal, state and local government web resources and services.